Location: *
(46.3500°N, 10.9000°E)
Time: 08:05:18
(UTC+00:00)

ISS - Visible Passes

Search period start: 27 February 2024 00:00
Search period end: 08 March 2024 00:00
Orbit: 414 x 422 km, 51.6° (Epoch: 27 February)

Date Brightness Start Highest point End Pass type
(mag) Time Alt. Az. Time Alt. Az. Time Alt. Az.
27 Feb -1.6 03:34:09 24° NE 03:34:09 24° NE 03:35:54 10° ENE visible
27 Feb -2.5 05:07:05 12° WNW 05:09:59 34° N 05:13:08 10° ENE visible
28 Feb -2.4 04:21:03 27° NNW 04:22:00 32° N 04:25:06 10° ENE visible
29 Feb -1.7 03:34:59 26° NNE 03:34:59 26° NNE 03:37:03 10° ENE visible
29 Feb -3.0 05:07:55 10° WNW 05:11:13 47° NNE 05:14:31 10° E visible
01 Mar -0.2 02:48:54 11° ENE 02:48:54 11° ENE 02:49:01 10° ENE visible
01 Mar -2.7 04:21:49 26° NW 04:23:10 39° NNE 04:26:23 10° E visible
02 Mar -2.1 03:35:43 31° NNE 03:35:43 31° NNE 03:38:12 10° ENE visible
02 Mar -3.7 05:08:44 10° WNW 05:12:08 88° NNE 05:15:31 10° ESE visible
03 Mar -0.3 02:49:37 12° ENE 02:49:37 12° ENE 02:49:59 10° ENE visible
03 Mar -3.4 04:22:33 29° NW 04:24:04 62° NNE 04:27:26 10° ESE visible
04 Mar -2.6 03:36:28 42° NE 03:36:28 42° NE 03:39:12 10° E visible
04 Mar -3.1 05:09:29 10° WNW 05:12:41 40° SW 05:15:53 10° SE visible
05 Mar -0.5 02:50:26 13° E 02:50:26 13° E 02:50:54 10° E visible
05 Mar -3.8 04:23:23 34° W 04:24:38 64° SSW 04:27:58 10° SE visible
06 Mar -2.8 03:37:24 45° ESE 03:37:24 45° ESE 03:39:51 10° ESE visible
06 Mar -2.0 05:10:33 10° W 05:12:52 17° SW 05:15:10 10° S visible
07 Mar -0.4 02:51:31 10° ESE 02:51:31 10° ESE 02:51:34 10° ESE visible
07 Mar -2.7 04:24:27 26° SW 04:24:49 27° SW 04:27:42 10° SSE visible
